Location: *
(10.5081°N, 66.9194°W)
Time: 04:44:18
(UTC+00:00)

Cosmos 2251 Rocket - Pass Details

Date: 30 March 2020
Orbit: 765 x 791 km, 74.0° (Epoch: 24 May)

Event Time Altitude Azimuth Distance (km) Brightness Sun altitude
Rises 23:45:35 0° 186° (S) 3,245 6.7 -17.2°
Reaches altitude 10° 23:47:58 10° 183° (S) 2,322 5.9 -17.8°
Maximum altitude 23:53:12 65° 102° (ESE) 856 3.4 -19.1°
Drops below altitude 10° 23:58:27 10° 21° (NNE) 2,338 5.9 -20.4°
Sets 00:00:52 0° 18° (NNE) 3,269 6.7 -21.0°
